Location: Stara Lesna
(49.1528°N, 20.2911°E)
Time: 04:02:43
(UTC+02:00)

Cosmos 2315 Rocket - Pass Details

Date: 21 September 2019
Orbit: 966 x 1002 km, 82.9° (Epoch: 21 October)

Event Time Altitude Azimuth Distance (km) Brightness Sun altitude
Rises 05:44:30 0° 348° (NNW) 3,668 7.0 -7.1°
Reaches altitude 10° 05:47:02 10° 346° (NNW) 2,718 6.3 -6.7°
Maximum altitude 05:53:11 69° 265° (W) 1,036 4.0 -5.7°
Drops below altitude 10° 05:59:20 10° 184° (S) 2,711 6.2 -4.7°
Sets 06:01:51 0° 182° (S) 3,658 6.9 -4.3°
